Theta_e
301 301 301 300 300 300 300 300 300 300 300 300 300 300 300 300 300 300 298 294 295 298 299 303 304 303 297 296 295 301 300 299 301 304 305 306 313 317 319 318 316 318 317 316 316 318 320
301 301 301 300 300 300 300 300 300 300 300 300 300 300 300 299 299 298 293 294 298 299 301 304 305 302 300 295 297 298 299 299 303 305 306 305 305 305 310 317 318 317 317 317 316 315 316
302 302 301 301 301 300 300 300 300 300 300 301 300 300 300 299 297 293 294 297 298 300 302 303 305 301 301 296 299 303 303 302 303 305 306 306 306 307 308 315 315 316 318 318 319 318 315
300 301 302 302 301 301 301 301 301 301 301 301 301 300 300 296 294 294 294 296 298 302 302 301 300 300 299 298 302 303 304 304 305 304 306 306 306 307 307 309 311 314 315 317 314 319 317
301 301 301 301 301 302 302 302 302 301 301 301 301 301 300 295 294 295 293 294 300 304 302 303 302 301 301 301 301 302 304 303 304 305 306 305 306 307 307 310 308 311 312 312 312 316 316
300 300 299 300 300 300 301 301 300 300 300 300 301 300 300 295 294 295 294 296 299 303 299 301 302 299 298 299 300 301 303 304 303 305 306 307 308 309 310 311 302 303 308 311 314 315 315
298 299 300 299 300 299 299 299 299 299 299 299 299 299 299 295 293 295 295 296 297 298 297 298 298 299 299 300 301 301 302 306 307 307 306 306 307 309 309 308 308 310 309 308 310 312 316
298 298 299 298 299 300 300 299 299 299 299 298 298 298 298 294 294 296 297 296 296 296 298 297 298 299 299 300 302 302 304 305 306 307 307 307 308 306 305 306 306 308 308 307 306 308 312
297 296 296 298 299 299 299 299 299 299 299 298 297 298 297 293 294 296 297 296 296 297 298 296 297 299 300 301 303 303 304 305 306 306 307 307 307 306 305 306 307 307 306 306 306 306 309
298 298 297 297 299 299 297 299 298 299 298 298 297 298 297 292 293 294 295 296 297 298 294 294 302 302 299 302 304 303 304 305 306 307 307 307 306 307 307 308 307 308 306 306 305 305 308
300 300 299 299 299 296 296 298 299 298 298 298 298 297 297 294 295 294 295 295 298 294 298 294 300 298 299 300 303 304 305 305 306 305 306 306 305 306 307 307 306 307 307 308 307 307 306
297 297 299 299 297 296 296 297 296 295 297 298 296 296 296 295 294 294 293 297 295 297 293 298 298 298 299 299 301 300 304 305 305 307 306 306 305 305 306 306 306 306 308 308 309 310 310
296 297 298 297 296 296 297 295 297 296 297 297 294 294 294 294 293 294 295 293 297 297 293 298 298 298 299 299 300 300 300 302 305 305 304 304 303 304 306 308 307 307 309 311 310 313 310
296 295 297 296 296 297 296 295 295 296 297 295 293 293 296 295 295 296 294 296 294 291 297 298 298 298 300 300 299 300 301 301 302 304 305 305 304 305 307 306 306 306 307 310 310 309 307
298 298 296 296 295 295 295 295 295 296 295 296 293 296 297 298 295 296 295 295 294 294 298 298 298 299 299 299 299 299 299 302 304 302 302 306 304 301 302 304 305 306 308 308 313 312 311
295 295 296 298 297 297 297 295 295 295 295 295 293 295 297 296 297 295 294 296 296 295 298 297 298 299 299 298 298 297 299 301 301 301 302 302 301 302 303 304 306 307 307 309 313 316 314
297 297 297 296 296 296 296 296 295 294 294 294 293 295 295 298 296 294 295 292 295 296 297 297 299 298 298 298 297 296 297 300 300 299 297 300 302 302 303 304 305 306 307 308 308 308 312
295 294 295 295 295 296 296 296 296 295 293 293 291 293 294 294 295 289 293 295 297 298 296 297 297 298 297 297 296 296 296 298 296 297 296 299 301 303 301 303 305 306 306 307 308 307 307
296 296 295 295 296 295 295 295 296 295 294 294 291 291 293 295 297 291 293 296 297 296 297 296 295 295 296 296 296 296 296 296 295 295 295 298 300 300 299 301 302 300 303 306 306 306 307
295 295 295 296 296 295 295 296 295 295 294 293 289 291 290 290 290 294 297 296 296 295 295 295 296 296 296 296 296 296 296 295 295 294 297 298 299 299 299 298 298 301 299 301 303 306 306
295 295 295 295 295 296 294 295 294 295 294 293 287 288 289 291 292 296 295 295 295 294 295 295 296 296 295 295 295 295 294 294 294 295 296 297 297 295 295 296 296 298 300 302 301 301 303
296 296 295 296 295 295 295 296 295 295 295 293 290 290 291 292 293 294 294 293 294 294 295 295 296 295 295 296 295 295 295 294 294 294 295 296 296 296 296 295 297 298 298 298 300 304 305
295 296 296 295 295 295 294 295 295 294 295 293 291 291 292 291 292 292 292 294 295 295 295 295 295 295 295 294 294 294 293 293 293 294 296 295 296 296 296 294 297 299 300 299 301 305 307
293 294 296 295 295 295 294 296 295 294 294 293 292 292 293 292 292 293 294 294 294 293 294 293 294 294 294 293 293 294 293 293 294 295 295 296 297 296 296 295 298 298 298 300 302 304 308
293 294 295 295 294 294 294 296 297 295 295 294 293 293 294 293 292 293 293 293 293 293 293 293 293 293 292 292 293 292 291 291 291 294 296 295 297 297 296 298 297 298 304 304 304 305 304
292 294 295 295 294 294 295 296 296 295 294 295 294 294 292 292 293 293 293 293 293 292 291 292 292 291 291 291 291 293 293 292 296 297 298 295 295 296 296 298 299 299 302 301 303 307 302
291 292 294 293 293 292 294 295 295 295 294 294 295 294 292 294 292 292 293 292 291 291 292 291 291 291 291 290 293 293 294 295 297 296 297 298 297 297 296 296 299 300 301 299 304 305 303
291 291 292 292 293 292 293 294 295 295 293 294 294 294 294 294 293 291 291 292 292 292 292 291 291 289 289 291 292 293 295 296 293 293 294 297 300 299 299 300 300 301 299 299 301 302 303
291 292 292 292 292 293 294 294 293 293 293 293 294 293 293 293 292 292 292 292 291 292 292 292 291 291 292 293 291 291 294 293 293 295 295 299 299 299 302 301 301 300 300 299 301 301 301
Wind_Speed
10 9 10 9 10 11 11 12 12 13 13 14 15 16 17 18 18 19 20 20 18 17 17 13 9 10 7 4 3 3 9 13 12 11 10 5 1 2 5 4 3 18 22 16 16 17 15
8 8 9 9 10 11 11 12 12 13 14 16 17 18 19 21 21 24 24 20 20 21 17 11 5 1 2 3 2 10 14 10 5 9 7 9 6 6 6 6 8 7 15 16 13 17 18
7 7 7 8 8 10 11 11 12 14 15 16 17 19 20 22 24 28 23 21 23 16 14 9 6 5 3 4 8 12 8 3 3 4 1 4 6 4 6 4 7 11 18 20 23 16 15
6 7 6 6 7 8 9 10 11 13 15 16 18 19 22 25 27 26 23 20 18 8 12 10 5 4 2 3 7 8 8 5 5 7 4 5 3 3 3 8 8 11 13 12 7 15 12
8 7 8 8 9 10 9 10 10 12 14 16 18 20 22 25 28 23 24 22 8 5 8 7 2 2 2 7 6 10 4 5 8 5 8 12 5 2 2 4 7 10 16 22 19 8 10
7 8 8 8 9 10 10 11 12 13 14 16 17 20 22 25 28 20 25 13 6 4 7 1 2 1 2 5 9 13 9 6 4 7 3 2 3 2 2 5 12 13 15 19 21 6 12
5 5 7 8 9 9 10 10 12 14 15 16 17 19 21 23 25 21 22 5 9 4 10 2 7 3 6 11 6 2 4 2 1 1 2 2 1 6 9 12 16 16 19 26 27 18 17
5 6 5 7 9 9 10 11 12 14 16 17 17 18 20 20 16 15 22 8 5 2 7 5 7 9 11 5 3 1 1 3 3 3 1 1 8 13 10 12 14 16 20 25 26 18 19
4 6 6 6 8 10 10 10 11 13 15 16 16 17 19 21 6 13 16 9 10 2 2 6 3 3 5 3 3 3 1 1 2 2 3 6 5 6 7 12 12 15 18 23 26 18 24
2 3 7 8 8 11 12 10 10 12 14 14 14 15 19 20 3 11 3 11 13 7 3 5 3 1 2 2 3 1 1 1 2 4 4 7 6 8 9 10 9 17 11 19 21 15 15
0 3 5 5 5 12 11 8 7 12 12 13 14 15 16 14 6 4 5 13 5 2 3 7 2 3 9 2 7 2 1 0 6 6 3 6 8 10 12 10 9 10 8 12 12 16 17
3 3 2 2 7 9 9 9 10 11 11 13 15 14 16 9 9 2 10 10 2 4 2 4 3 8 8 5 5 7 3 1 2 6 6 13 6 6 4 11 14 15 17 18 15 11 9
2 2 1 3 5 9 8 11 10 11 12 14 16 17 14 7 2 6 11 3 4 4 3 3 5 9 7 6 6 6 7 7 3 5 5 11 2 3 5 7 3 5 9 4 3 5 12
2 1 4 5 6 5 8 9 9 11 12 14 17 13 5 3 3 3 4 4 5 2 2 3 5 9 2 9 5 8 8 8 5 4 4 4 7 2 4 4 7 13 9 6 6 6 15
2 1 1 2 2 4 6 8 9 11 12 15 16 5 5 9 2 1 4 4 4 2 2 6 8 2 2 6 3 6 4 5 5 8 8 6 5 5 8 9 2 3 6 12 7 20 11
3 3 0 3 5 7 7 7 9 11 11 13 8 3 7 7 5 4 4 1 0 2 2 1 2 2 4 5 6 10 4 2 4 6 2 4 9 4 4 1 2 4 6 5 3 5 5
2 1 1 2 4 6 6 6 8 10 10 11 4 2 3 2 4 4 2 3 3 3 2 2 2 4 4 3 5 7 5 3 8 5 8 6 5 11 9 4 9 4 4 3 4 5 7
4 4 4 4 3 4 4 5 6 7 10 6 3 2 4 2 3 1 1 2 3 3 2 2 3 6 5 3 6 5 6 4 14 10 10 2 5 8 16 9 2 1 7 4 4 7 8
6 6 3 1 2 4 5 4 4 4 7 3 2 1 4 1 1 0 3 3 3 2 1 2 3 3 2 4 4 5 6 6 15 9 7 5 3 8 12 2 3 4 5 7 7 8 12
8 5 5 4 2 1 5 3 2 2 3 3 2 2 3 3 1 2 1 3 2 1 5 4 3 3 2 3 6 7 12 7 12 16 16 13 4 3 7 11 13 15 13 15 11 7 13
10 9 7 5 4 3 1 2 2 4 1 2 2 1 1 1 1 1 1 1 4 5 4 1 2 4 4 6 11 14 12 20 14 15 8 2 6 6 11 15 19 22 19 18 13 18 10
9 9 8 6 7 6 5 4 4 6 6 2 3 3 1 2 1 2 3 3 4 5 4 4 7 8 5 6 11 19 17 16 13 11 12 3 8 13 16 18 16 21 22 22 16 13 12
9 8 10 7 7 8 7 8 7 9 10 3 3 3 2 1 1 2 3 4 2 2 6 8 5 10 15 17 15 15 15 18 20 20 22 13 7 7 14 13 14 12 6 6 7 8 9
12 9 10 10 8 8 8 9 11 12 15 7 4 5 2 3 4 5 5 6 10 11 14 17 14 14 8 9 13 14 17 20 20 21 17 15 15 5 8 8 5 6 14 8 9 8 7
11 10 9 10 9 9 8 8 14 12 15 13 10 5 3 3 4 8 12 11 11 10 13 14 17 11 8 5 5 7 4 4 4 5 3 15 10 3 4 5 10 11 3 5 14 8 12
9 8 8 11 10 9 9 8 12 13 10 17 15 18 4 2 6 9 5 7 6 3 5 5 7 5 1 0 1 2 3 3 5 6 0 2 10 7 2 3 3 2 7 16 8 8 16
10 10 8 8 10 9 9 9 11 14 11 12 8 21 5 3 4 5 5 4 4 2 3 3 4 3 1 1 3 3 3 4 4 5 4 1 3 9 8 6 7 5 13 15 4 8 14
8 9 9 10 8 11 10 8 11 10 9 11 9 18 13 3 5 9 8 7 5 3 4 2 4 0 1 2 3 3 3 2 4 7 8 4 3 4 5 6 6 3 8 8 10 14 14
5 5 7 8 4 5 7 9 9 9 7 9 6 12 19 7 4 6 14 19 24 21 5 6 4 4 4 2 2 2 2 2 3 4 4 3 2 5 4 4 11 15 12 12 9 13 15
Wind_Direction
68 59 61 47 47 47 40 36 27 23 23 18 12 9 4 1 358 353 348 345 347 348 343 332 326 336 348 9 256 304 319 336 349 21 27 8 340 284 250 264 258 240 259 265 261 256 258
66 55 54 41 41 43 38 32 28 24 21 17 12 8 4 1 358 353 349 352 350 344 339 324 294 234 66 343 351 326 313 326 19 38 24 29 358 312 283 261 258 309 292 284 275 263 256
35 29 29 33 28 35 35 28 23 20 16 13 9 5 1 359 357 354 356 353 346 344 5 3 165 158 115 238 342 358 6 7 72 28 39 3 341 337 331 270 285 291 289 281 257 246 249
52 37 25 12 9 19 24 19 13 12 10 7 3 0 358 358 358 356 354 348 343 353 15 30 85 128 245 331 351 14 29 48 44 340 256 315 302 270 237 306 298 279 282 274 302 225 228
42 32 19 11 14 21 16 9 2 1 1 360 358 357 355 357 356 353 351 343 349 351 10 17 84 64 357 334 344 323 298 292 304 285 273 285 207 218 271 260 275 246 265 268 288 263 220
61 19 14 2 354 7 11 12 6 6 3 360 356 354 353 353 353 355 353 351 14 14 341 1 34 51 7 326 321 316 303 278 300 307 322 121 149 197 201 205 249 269 260 270 272 314 281
49 30 8 9 2 5 11 6 6 7 6 2 355 352 350 350 355 4 1 33 14 1 32 342 304 271 300 316 309 316 346 285 286 71 48 29 238 236 229 234 256 269 271 275 276 282 271
26 29 38 14 3 2 8 7 7 7 6 4 359 354 351 351 2 31 47 73 79 246 319 305 261 261 276 269 308 332 42 347 347 347 79 23 248 252 247 256 258 261 264 268 278 282 261
39 45 46 21 3 1 353 354 358 1 358 358 358 356 353 352 33 42 59 72 358 176 272 304 256 268 295 185 303 286 74 359 322 330 240 237 271 332 252 271 274 263 253 260 266 295 281
49 26 32 7 342 349 345 341 351 351 355 357 360 358 354 357 59 360 61 354 351 154 55 338 2 34 349 255 291 231 222 300 280 300 310 262 259 263 275 264 252 268 278 266 277 278 262
148 319 338 332 325 341 350 352 343 340 350 353 352 348 349 359 330 345 335 337 6 138 25 313 17 337 328 343 312 24 262 358 271 280 300 272 281 296 297 273 246 256 301 284 280 272 274
59 358 38 335 329 340 347 345 338 344 349 349 344 343 341 338 320 327 338 338 102 44 266 351 19 349 357 352 329 329 323 289 270 289 251 259 259 288 235 294 265 281 281 284 267 264 258
275 338 357 323 329 325 324 337 338 347 346 344 342 337 327 312 313 322 329 37 44 102 329 16 342 331 333 328 323 10 326 321 305 324 332 316 248 241 219 298 265 234 277 277 241 213 252
92 8 281 301 329 325 318 330 344 343 348 342 345 343 36 20 311 30 13 56 82 240 324 16 324 316 340 12 342 327 343 354 19 324 286 303 306 203 174 280 300 302 266 266 277 244 278
249 205 49 349 346 345 335 341 346 345 345 347 351 52 49 355 87 87 66 61 179 200 13 337 319 329 340 12 340 338 345 339 25 36 5 308 289 295 259 268 265 346 290 287 271 253 276
260 253 3 277 299 302 321 341 350 351 349 350 355 19 25 50 94 22 67 119 212 211 342 315 287 5 324 332 336 347 305 240 352 41 80 315 303 269 307 292 209 230 321 322 264 284 211
248 229 265 254 311 312 316 316 344 350 353 353 17 62 39 53 20 44 97 227 290 257 327 252 265 291 275 290 319 310 277 277 17 333 337 294 243 290 306 281 299 302 315 307 271 289 330
219 264 245 256 286 328 313 325 313 347 355 12 66 72 5 77 42 321 144 218 291 288 307 292 234 258 263 314 292 282 267 314 16 358 334 302 285 287 303 322 3 61 300 294 304 326 292
236 217 227 181 252 342 317 301 303 333 10 35 70 312 14 99 217 236 265 265 241 267 287 331 292 260 343 294 298 283 295 330 326 342 330 331 306 314 310 344 37 338 303 281 273 274 283
251 222 226 231 255 231 318 267 275 276 16 54 86 49 341 50 16 139 267 274 250 300 276 228 258 282 328 279 275 281 295 298 333 309 295 296 262 255 277 291 293 290 293 286 271 285 292
241 238 227 229 230 220 279 216 244 216 221 102 41 165 173 323 337 174 139 279 270 294 234 260 261 200 332 288 292 278 292 304 302 291 277 258 261 256 266 272 289 280 286 288 278 270 257
236 236 239 229 217 216 220 214 203 204 190 109 128 139 167 268 247 202 225 236 240 269 239 261 248 302 298 271 275 291 293 293 285 290 276 255 266 288 281 285 274 291 287 284 277 323 268
246 238 230 237 229 227 225 217 210 200 183 136 137 116 112 264 167 137 229 211 233 357 270 260 295 309 299 291 298 287 277 271 259 263 272 260 259 268 276 290 304 293 233 330 287 342 316
256 240 222 222 222 230 218 214 214 202 208 179 155 124 160 244 201 212 238 237 268 275 276 286 286 279 284 329 307 282 261 261 263 261 245 256 246 206 269 296 246 251 317 300 313 323 336
253 236 226 213 217 234 228 222 206 207 206 199 183 150 186 233 219 253 250 261 275 276 279 281 279 266 296 321 310 319 323 325 288 245 219 220 234 223 226 231 295 300 35 5 325 317 21
251 224 215 214 215 234 229 217 205 211 209 209 219 220 167 168 225 250 272 244 251 260 300 268 288 299 250 26 189 254 298 283 306 323 51 114 190 205 178 240 255 283 343 330 305 256 8
260 230 209 219 236 248 224 218 224 208 208 212 218 217 175 234 229 196 223 228 186 175 237 276 306 293 27 200 219 228 257 273 286 301 338 355 172 214 227 251 277 295 345 326 315 339 337
249 225 229 227 251 230 228 233 204 202 222 227 223 223 207 242 242 203 199 213 233 213 222 231 333 167 109 196 213 238 247 284 285 273 294 285 291 203 207 211 254 64 337 11 319 312 306
239 220 205 214 225 210 187 189 213 223 225 226 217 207 222 223 252 223 239 254 247 243 225 194 210 178 214 215 218 281 266 266 268 283 286 268 267 298 246 256 290 311 291 315 305 309 315